{"data":{"norad_id":67676,"epoch":"2026-09-18T21:23:20.613984Z","epoch_age_seconds":228226,"freshness":"STALE","line1":"1 67676U 26023C   26261.89121081  .00005294  00000+0  20701-3 0  9994","line2":"2 67676  96.6256 312.8423 0018448 147.1287 213.1105 15.26047549 34290","mean_motion":15.26047549,"eccentricity":0.0018448,"inclination_deg":96.6256,"raan_deg":312.8423,"arg_perigee_deg":147.1287,"mean_anomaly_deg":213.1105,"bstar":0.00020701,"rev_number":3429,"period_min":94.361411015247,"perigee_km":474.97565672733,"apogee_km":500.30763361655,"semimajor_km":6865.7786451719,"source":"CELESTRAK","updated_at":"2026-09-21T09:00:16.776510Z"}}